CAPE
3 2 1 1 1 1 1 1 0 0 0 0 0 0 0 0 0 0 0 0 0 0 1090 806 416 245 488 521 390 212 155 0 0 128 142 315 300 354 281 114 73 55 33 38 73
1 1 1 1 1 0 0 1 1 0 0 0 0 0 0 0 0 0 0 0 0 258 360 36 66 291 258 678 564 344 90 0 0 3 3 283 371 408 364 160 106 80 75 69 93
1 0 0 0 1 0 0 0 0 0 0 0 0 0 0 0 0 0 0 0 0 11 0 106 430 145 108 319 662 456 7 5 0 0 0 223 387 440 392 108 86 45 118 81 129
0 0 0 0 0 0 0 0 0 0 0 0 0 0 0 0 0 0 0 0 0 7 0 0 190 17 0 0 98 48 0 3 0 0 0 167 400 462 408 120 121 142 101 125 150
0 0 0 0 0 0 0 0 0 0 0 0 0 0 0 0 0 0 0 0 0 0 0 0 0 0 0 0 0 0 0 0 0 0 0 197 304 389 458 361 335 204 125 129 172
0 0 0 0 0 0 0 0 1 0 0 0 2 1 0 0 0 0 0 0 0 0 0 0 0 0 0 0 0 0 0 0 0 0 0 11 255 463 503 393 315 166 144 160 206
0 0 1 0 0 0 0 0 0 0 0 0 3 0 0 0 0 0 0 0 0 0 0 0 0 0 0 0 0 0 0 0 0 0 0 46 312 353 473 410 346 171 165 212 306
0 0 0 0 0 0 0 0 0 0 0 1 3 0 0 0 0 0 0 0 0 0 0 0 0 0 0 0 0 0 0 0 0 0 17 105 15 400 520 492 428 216 164 211 321
0 0 0 0 0 0 0 0 0 0 0 1 0 0 0 0 0 0 0 0 0 0 0 0 0 0 0 0 0 0 0 0 0 0 0 46 0 129 578 540 513 354 225 269 303
0 0 0 0 0 0 0 0 0 0 0 0 0 0 0 0 0 0 0 0 0 0 0 0 0 0 0 0 0 0 0 0 0 0 0 10 0 5 544 573 572 490 337 357 316
0 0 0 0 0 0 0 0 0 0 0 0 0 0 0 0 0 0 0 0 0 0 0 0 0 0 0 0 0 0 0 0 0 0 0 0 0 23 224 495 560 550 455 410 353
0 0 0 0 0 0 0 0 0 0 0 0 0 0 0 0 0 0 0 0 0 0 0 0 0 0 0 0 0 0 0 0 0 0 0 0 0 0 187 191 288 481 520 475 469
0 0 0 0 0 0 0 0 0 0 0 0 0 0 0 0 0 0 0 0 0 0 0 0 0 0 0 0 0 0 0 0 0 0 0 0 0 0 81 411 516 502 512 482 517
0 0 0 0 0 0 0 0 0 0 0 0 0 0 0 0 0 0 0 0 0 0 0 0 0 0 0 0 0 0 0 0 0 0 0 0 0 0 0 134 386 497 573 519 527
0 0 0 0 0 0 0 0 0 0 0 0 0 0 0 0 0 0 0 0 0 0 0 0 0 0 0 0 0 0 0 0 0 0 0 0 0 0 0 31 212 414 483 596 561
0 0 0 0 0 0 0 0 0 0 0 0 0 0 0 0 0 0 0 0 0 0 0 0 0 0 0 0 0 0 0 0 0 0 0 0 0 0 0 0 57 279 388 388 405
0 0 0 0 0 0 0 0 0 0 0 0 0 0 0 0 0 0 0 0 0 0 0 0 0 0 0 0 0 0 0 0 0 0 0 0 0 0 0 0 0 0 83 220 345
0 0 0 0 0 0 0 0 0 0 0 0 0 0 0 0 0 0 0 0 0 0 0 0 0 0 0 0 0 0 0 0 0 0 0 0 0 0 0 0 0 0 0 5 69
0 0 0 0 0 0 0 0 0 0 0 0 0 0 0 0 0 0 0 0 0 0 0 0 0 0 0 0 0 0 0 0 0 0 0 0 0 0 0 0 0 0 0 0 0
0 0 0 0 0 0 0 0 0 0 0 0 0 0 0 0 0 0 0 0 0 0 0 0 0 0 0 0 0 0 0 0 0 0 0 0 0 0 0 0 0 0 0 0 0
0 0 0 0 0 0 0 0 0 0 0 0 0 0 0 0 0 0 0 0 0 0 0 0 0 0 0 0 0 0 0 0 0 0 0 0 0 0 0 0 0 0 0 0 0
0 0 0 0 0 0 0 0 0 0 0 0 0 0 0 0 0 0 0 0 0 0 0 0 0 0 0 0 0 0 0 0 0 0 0 0 0 0 0 0 0 0 0 0 0
0 0 0 0 0 0 0 0 0 0 0 0 0 0 0 0 0 0 0 0 0 0 0 0 0 0 0 0 0 0 0 0 0 0 0 0 0 0 0 0 0 0 0 0 0
0 0 0 0 0 0 0 0 0 0 1 0 0 0 0 0 0 0 0 0 0 0 0 0 0 0 0 0 0 0 0 0 0 0 0 0 0 0 0 0 0 0 0 0 0
0 0 1 0 0 0 0 0 1 0 0 1 0 0 0 0 0 0 0 0 0 0 0 0 0 0 0 0 0 0 0 0 0 0 0 0 0 0 0 0 0 0 0 0 0
1 0 1 1 5 1 0 0 0 0 0 0 0 0 0 0 0 0 0 0 0 0 0 0 0 0 0 0 0 0 0 0 0 0 0 0 0 0 0 0 0 0 0 0 0
0 1 2 1 3 0 0 0 0 0 0 0 2 0 0 0 0 0 0 0 0 0 0 0 0 0 0 0 0 0 0 0 0 0 0 0 0 0 0 0 0 0 0 0 0
CIN
0 0 0 0 0 0 0 0 0 0 0 0 0 0 0 0 0 0 0 0 0 0 -85 -146 -202 -230 -128 -106 -129 -195 -120 0 0 -57 -49 -133 -104 -145 -141 -170 -181 -219 -245 -297 -248
0 0 0 0 0 0 0 0 0 0 0 0 0 0 0 0 0 0 0 0 0 -136 -214 -242 -224 -215 -199 -92 -87 -140 -162 0 0 -30 -15 -79 -96 -152 -155 -154 -174 -181 -230 -267 -254
0 0 0 0 0 0 0 0 0 0 0 0 0 0 0 0 0 0 0 0 0 -122 0 -279 -136 -206 -219 -167 -104 -135 -119 -135 0 0 0 -76 -116 -163 -152 -203 -236 -186 -262 -298 -304
0 0 0 0 0 0 0 0 0 0 0 0 0 0 0 0 0 0 0 0 0 -74 0 0 -109 -176 0 0 -219 -184 0 -155 0 0 0 -78 -99 -138 -147 -184 -244 -309 -330 -345 -315
0 0 0 0 0 0 0 0 0 0 0 0 0 0 0 0 0 0 0 0 0 0 0 0 0 0 0 0 0 0 0 0 0 0 0 -92 -86 -70 -144 -169 -197 -326 -327 -333 -278
0 0 0 0 0 0 0 0 0 0 0 0 0 0 0 0 0 0 0 0 0 0 0 0 0 0 0 0 0 0 0 0 0 0 0 -44 -98 -102 -114 -230 -266 -363 -320 -344 -267
0 0 0 0 0 0 0 0 0 0 0 0 0 0 0 0 0 0 0 0 0 0 0 0 0 0 0 0 0 0 0 0 0 0 0 -138 -128 -156 -126 -203 -240 -360 -302 -293 -238
0 0 0 0 0 0 0 0 0 0 0 0 0 0 0 0 0 0 0 0 0 0 0 0 0 0 0 0 0 0 0 0 0 0 -33 -131 -61 -126 -154 -205 -218 -289 -297 -300 -248
0 0 0 0 0 0 0 0 0 0 0 0 0 0 0 0 0 0 0 0 0 0 0 0 0 0 0 0 0 0 0 0 0 0 0 -177 -22 -150 -201 -196 -211 -274 -316 -271 -246
0 0 0 0 0 0 0 0 0 0 0 0 0 0 0 0 0 0 0 0 0 0 0 0 0 0 0 0 0 0 0 0 0 0 0 -118 0 -62 -208 -199 -218 -247 -265 -263 -279
0 0 0 0 0 0 0 0 0 0 0 0 0 0 0 0 0 0 0 0 0 0 0 0 0 0 0 0 0 0 0 0 0 0 0 0 0 -187 -173 -210 -236 -272 -281 -271 -286
0 0 0 0 0 0 0 0 0 0 0 0 0 0 0 0 0 0 0 0 0 0 0 0 0 0 0 0 0 0 0 0 0 0 0 0 0 0 -188 -197 -227 -258 -307 -280 -274
0 0 0 0 0 0 0 0 0 0 0 0 0 0 0 0 0 0 0 0 0 0 0 0 0 0 0 0 0 0 0 0 0 0 0 0 0 0 -241 -266 -268 -262 -308 -268 -274
0 0 0 0 0 0 0 0 0 0 0 0 0 0 0 0 0 0 0 0 0 0 0 0 0 0 0 0 0 0 0 0 0 0 0 0 0 0 0 -253 -276 -264 -288 -311 -266
0 0 0 0 0 0 0 0 0 0 0 0 0 0 0 0 0 0 0 0 0 0 0 0 0 0 0 0 0 0 0 0 0 0 0 0 0 0 0 -215 -271 -287 -293 -335 -301
0 0 0 0 0 0 0 0 0 0 0 0 0 0 0 0 0 0 0 0 0 0 0 0 0 0 0 0 0 0 0 0 0 0 0 0 0 0 0 0 -240 -238 -260 -305 -343
0 0 0 0 0 0 0 0 0 0 0 0 0 0 0 0 0 0 0 0 0 0 0 0 0 0 0 0 0 0 0 0 0 0 0 0 0 0 0 0 0 -6 -218 -280 -341
0 0 0 0 0 0 0 0 0 0 0 0 0 0 0 0 0 0 0 0 0 0 0 0 0 0 0 0 0 0 0 0 0 0 0 0 0 0 0 0 0 0 0 -164 -296
0 0 0 0 0 0 0 0 0 0 0 0 0 0 0 0 0 0 0 0 0 0 0 0 0 0 0 0 0 0 0 0 0 0 0 0 0 0 0 0 0 0 0 0 0
0 0 0 0 0 0 0 0 0 0 0 0 0 0 0 0 0 0 0 0 0 0 0 0 0 0 0 0 0 0 0 0 0 0 0 0 0 0 0 0 0 0 0 0 0
0 0 0 0 0 0 0 0 0 0 0 0 0 0 0 0 0 0 0 0 0 0 0 0 0 0 0 0 0 0 0 0 0 0 0 0 0 0 0 0 0 0 0 0 0
0 0 0 0 0 0 0 0 0 0 0 0 0 0 0 0 0 0 0 0 0 0 0 0 0 0 0 0 0 0 0 0 0 0 0 0 0 0 0 0 0 0 0 0 0
0 0 0 0 0 0 0 0 0 0 0 0 0 0 0 0 0 0 0 0 0 0 0 0 0 0 0 0 0 0 0 0 0 0 0 0 0 0 0 0 0 0 0 0 0
0 0 0 0 0 0 0 0 0 0 0 0 0 0 0 0 0 0 0 0 0 0 0 0 0 0 0 0 0 0 0 0 0 0 0 0 0 0 0 0 0 0 0 0 0
0 0 -10 0 0 -1 0 0 -1 0 0 0 0 0 0 0 0 0 0 0 0 0 0 0 0 0 0 0 0 0 0 0 0 0 0 0 0 0 0 0 0 0 0 0 0
-1 0 0 0 -11 -3 0 0 -3 0 0 0 0 0 0 0 0 0 0 0 0 0 0 0 0 0 0 0 0 0 0 0 0 0 0 0 0 0 0 0 0 0 0 0 0
0 -5 -1 0 -1 0 0 0 0 0 0 -1 0 0 0 0 0 0 0 0 0 0 0 0 0 0 0 0 0 0 0 0 0 0 0 0 0 0 0 0 0 0 0 0 0
Wind_Speed
32 32 31 31 31 30 30 30 30 29 28 25 27 28 29 30 30 23 28 22 15 13 8 9 11 9 4 7 16 18 14 13 14 11 13 11 11 14 15 16 21 23 18 21 24
33 33 33 33 32 32 31 31 30 30 29 28 25 28 28 29 29 31 26 2 7 16 16 15 10 9 5 4 3 13 15 13 16 14 15 11 12 16 14 16 13 19 14 21 22
35 35 35 35 34 34 33 32 32 31 30 29 28 27 28 27 28 21 20 7 16 19 12 9 7 3 3 10 1 13 26 17 20 17 17 9 10 17 14 17 22 21 20 25 25
37 37 36 36 36 36 35 34 33 32 31 30 28 28 28 19 21 13 17 7 16 15 15 15 11 6 18 12 13 22 29 28 23 18 14 11 8 14 16 17 20 20 22 25 25
38 39 39 38 38 38 38 37 36 35 32 30 30 28 22 19 19 8 12 8 11 12 19 18 19 9 7 10 17 28 30 28 27 23 11 8 12 7 22 19 19 21 23 23 25
39 39 40 40 40 40 40 39 38 37 34 32 30 24 18 16 14 6 4 5 8 14 13 17 17 10 14 13 12 22 28 30 28 25 10 7 8 11 26 17 18 21 22 22 25
41 41 41 41 41 42 43 41 40 37 35 33 15 12 20 22 12 11 6 6 13 13 12 10 9 16 9 21 15 32 32 30 31 28 18 9 3 20 11 18 17 21 22 22 26
42 43 43 43 43 44 45 42 40 36 32 20 8 13 20 23 27 28 9 4 11 9 7 11 8 10 14 22 22 21 29 25 28 22 17 5 20 14 10 16 20 21 23 24 27
44 44 45 45 46 47 43 41 30 24 18 9 12 18 26 19 21 11 11 9 7 8 6 9 12 17 21 26 30 20 20 12 31 29 22 5 23 13 12 17 21 22 24 26 26
46 46 47 47 47 46 43 34 21 19 16 18 19 22 22 19 14 13 5 8 6 6 5 5 11 16 20 16 17 20 18 29 23 22 28 19 29 3 11 16 21 24 26 28 26
47 47 48 49 49 44 39 24 28 26 26 25 22 22 21 17 17 11 9 8 6 5 11 7 16 27 17 20 22 24 20 23 18 20 20 21 30 3 5 11 22 28 26 30 29
48 49 49 50 49 38 30 24 24 28 39 36 42 43 37 20 23 15 2 9 10 11 9 6 29 13 13 18 21 29 32 37 25 31 30 32 30 20 7 21 30 31 27 32 32
50 50 49 50 46 28 30 23 28 31 34 36 28 32 29 22 30 22 9 11 13 14 19 21 16 11 19 12 17 18 20 25 23 22 26 24 33 33 16 14 32 39 34 33 36
50 50 50 50 29 38 30 27 35 26 36 35 27 26 20 16 32 22 12 14 15 20 13 14 16 6 17 27 19 35 20 23 23 24 31 21 33 12 24 19 24 39 38 37 38
51 51 50 44 36 36 31 37 36 21 41 24 22 15 15 19 21 23 18 21 16 14 17 13 12 14 19 14 13 25 20 25 28 32 30 29 34 17 5 19 31 41 40 37 39
52 52 53 36 33 32 36 37 22 31 42 27 21 23 18 23 21 17 22 22 20 21 23 20 17 12 17 18 14 19 16 20 23 27 42 26 14 32 16 19 29 39 43 38 38
53 53 48 31 36 33 34 25 32 39 29 31 29 26 26 24 23 19 22 26 23 22 22 21 23 21 16 16 19 16 15 20 28 28 44 25 28 42 34 30 19 32 40 41 38
54 51 38 29 36 33 25 27 44 36 38 30 29 31 26 25 25 25 21 29 29 26 23 24 29 22 19 17 18 16 19 15 18 18 33 27 44 39 42 39 39 37 40 41 43
51 41 33 31 37 28 25 38 38 35 35 38 35 34 31 27 26 26 26 31 30 27 30 27 35 23 26 21 16 21 20 18 28 26 31 30 43 41 36 41 38 42 39 39 41
46 39 33 35 36 26 29 38 35 29 34 33 39 31 36 32 28 26 26 26 34 30 29 31 31 29 23 26 27 23 18 21 22 27 34 29 38 39 23 30 47 41 40 32 17
37 36 30 41 26 27 35 35 36 33 33 34 35 37 34 33 30 28 29 24 25 30 27 31 31 26 23 29 27 28 26 22 20 27 24 40 40 30 37 27 42 48 45 42 23
33 38 32 34 29 27 33 35 35 37 32 33 34 34 36 34 34 31 31 26 23 26 30 29 32 43 32 24 29 29 31 30 31 27 35 43 40 21 30 28 33 38 41 45 41
36 29 27 27 31 32 31 31 31 33 33 33 34 32 32 34 37 31 30 25 24 24 27 29 33 39 39 41 35 33 38 33 32 35 28 25 42 42 38 26 26 42 40 32 37
29 30 27 24 25 29 32 31 32 29 29 30 31 29 32 35 32 34 32 28 28 25 24 26 32 35 43 36 34 43 39 35 37 47 49 55 49 37 31 37 34 34 40 38 33
25 25 25 30 30 30 30 28 30 30 27 25 28 29 33 40 39 39 35 35 30 27 27 29 38 37 36 41 40 42 45 45 44 39 50 50 56 50 45 42 41 41 39 40 43
22 24 23 26 25 30 27 25 27 30 29 32 29 28 32 36 38 41 37 36 38 34 33 31 40 38 45 41 45 48 46 46 46 46 48 60 56 40 48 34 40 46 45 44 42
17 17 19 23 24 28 26 26 29 30 27 27 30 35 33 31 32 37 39 41 42 40 38 37 38 41 51 43 46 55 48 51 50 42 43 59 50 40 43 37 30 26 21 37 40
Wind_Direction
321 318 313 310 305 301 296 292 289 284 280 271 277 282 283 288 283 302 229 203 169 148 149 137 131 115 94 298 262 236 286 283 258 271 276 16 357 36 21 61 168 139 103 121 123
323 319 315 312 308 303 298 294 290 285 279 275 268 279 281 289 295 262 226 224 165 153 150 155 155 136 267 71 323 287 271 274 223 240 276 62 53 77 17 65 118 126 74 120 126
322 319 315 312 309 304 300 295 291 285 279 273 271 271 280 287 294 294 299 123 152 155 163 180 173 186 231 283 346 287 220 262 223 221 277 58 57 101 49 95 143 130 116 133 135
322 320 316 312 309 305 300 295 290 284 278 275 268 274 280 324 305 327 325 101 147 151 156 151 165 217 255 264 277 260 228 228 231 269 293 71 80 118 118 147 170 133 128 136 142
320 318 316 313 309 305 300 295 288 284 277 271 275 277 315 314 201 345 352 51 136 158 164 165 165 220 172 263 240 212 229 241 230 239 163 87 131 120 171 203 116 118 125 137 145
318 316 314 312 309 305 300 295 287 282 274 266 273 299 319 236 324 114 355 103 131 160 170 170 171 193 240 183 163 254 210 219 235 233 161 129 133 125 189 144 107 122 130 136 149
321 317 314 311 309 305 301 293 287 279 268 261 316 323 303 205 329 346 97 134 141 152 170 187 249 179 264 268 277 222 231 237 233 239 305 115 54 169 120 139 128 140 141 138 152
321 318 316 313 310 306 302 295 289 284 282 312 329 310 304 290 233 216 119 88 144 152 251 178 231 250 264 268 272 270 244 196 254 274 279 109 179 164 143 142 154 150 155 156 160
323 321 318 314 312 310 303 301 311 323 332 358 325 303 298 299 281 225 180 155 130 155 190 272 256 260 260 257 255 270 267 189 238 245 265 148 239 171 154 159 162 159 163 168 165
325 323 322 319 315 312 307 308 326 329 333 316 309 296 291 294 299 283 241 174 267 157 266 220 262 255 251 217 210 257 260 253 196 270 238 178 222 323 165 164 167 169 171 176 170
325 323 322 321 318 312 319 325 307 301 300 290 295 290 297 295 289 296 272 190 253 212 181 206 183 192 232 240 253 260 264 268 281 269 275 186 215 235 177 176 173 176 172 180 180
325 322 321 319 317 317 329 319 320 309 284 281 247 242 260 289 276 275 210 216 203 196 188 239 197 207 240 247 245 253 256 240 269 252 256 244 239 186 185 183 184 182 177 182 186
324 323 322 320 313 327 319 322 324 315 294 288 284 277 276 264 263 263 219 241 213 196 185 187 286 202 186 210 211 239 205 258 265 273 262 274 261 244 190 261 196 203 194 189 193
323 322 322 321 323 316 309 318 318 317 290 284 287 283 279 275 262 251 224 235 256 197 239 237 250 190 192 192 190 200 251 260 265 269 267 279 266 287 200 187 186 199 194 194 196
322 323 322 322 316 310 308 309 310 312 279 295 284 292 287 267 278 255 238 249 233 240 236 242 236 210 189 217 217 251 257 259 263 265 270 268 264 281 241 185 192 205 198 195 199
321 322 322 325 318 311 307 304 304 284 272 283 287 281 278 271 277 278 231 253 252 250 255 254 275 223 205 261 233 254 268 266 269 269 259 227 230 264 194 184 191 205 211 201 199
321 320 320 325 316 316 309 298 275 269 284 278 276 281 278 272 268 267 237 227 234 240 242 254 250 272 262 231 257 235 239 259 263 260 232 262 250 223 230 217 186 194 204 207 201
322 322 322 321 319 315 307 277 266 274 270 283 282 279 270 274 268 264 249 231 243 245 252 244 256 230 257 246 240 235 230 230 205 254 260 264 237 243 218 239 217 206 212 214 211
327 327 320 323 321 316 293 265 270 274 278 276 274 270 267 269 268 261 260 243 244 244 252 252 255 269 251 255 230 251 224 232 266 274 270 267 249 253 251 238 245 217 245 232 209
330 327 321 326 320 305 286 269 271 281 286 278 263 269 262 265 262 260 256 264 250 255 259 258 261 255 249 248 247 250 252 248 250 209 214 273 256 251 260 248 223 242 235 202 195
338 324 331 329 325 299 278 274 275 285 286 271 267 264 263 262 262 259 257 264 265 258 260 256 256 259 249 243 236 245 245 258 258 260 252 246 242 263 249 254 239 218 219 217 200
340 321 338 336 312 301 286 283 283 277 282 274 270 266 262 262 260 257 254 258 276 269 256 260 256 249 250 258 254 244 246 245 254 257 262 252 227 270 215 202 256 248 247 234 245
334 331 349 345 309 301 296 285 282 279 276 271 267 268 265 260 255 258 257 262 275 270 261 263 255 250 251 254 258 257 251 251 252 262 238 232 235 217 240 279 268 248 253 258 253
343 328 337 344 335 318 301 286 280 282 274 274 270 267 263 258 260 256 257 261 267 269 271 265 255 253 250 254 258 254 255 254 251 254 231 223 233 250 263 256 263 252 252 259 266
359 342 345 324 322 319 313 296 285 278 277 278 268 272 266 257 256 256 259 261 264 267 267 263 254 257 259 258 260 258 256 255 255 254 252 248 232 238 246 250 241 240 245 234 241
11 357 351 341 337 319 317 305 296 287 278 267 267 277 273 260 259 255 261 259 258 261 262 263 256 258 256 263 259 258 257 258 258 259 262 245 250 261 244 269 264 241 250 241 231
25 14 0 344 337 324 318 312 302 299 285 271 275 273 269 269 270 266 264 261 259 258 258 260 258 258 254 258 262 255 255 256 258 260 260 250 258 266 260 265 271 221 261 224 228